UAL410 KSAT-KIAH

Flight info

Callsign UAL410
Flight time 0h 33m
Altitude 21000
Route SNIDR2 WEMAR HTOWN3
Aircraft B38M/M-SDE1FGHILORVWXY/HB1

Departure

Time 2026-05-08 14:35
Airport San Antonio International Airport (KSAT)

Arrival

Time 2026-05-08 15:08
Airport George Bush Intercontinental Airport (KIAH)
Time Latitude Longitude Altitude Speed Heading
2026-05-08 14:35 29.57207 -98.41840 3584 ft 225 kts 58°
2026-05-08 14:35 29.57856 -98.40095 4302 ft 244 kts 73°
2026-05-08 14:35 29.58435 -98.38213 5288 ft 257 kts 71°
2026-05-08 14:36 29.59077 -98.36242 6244 ft 268 kts 72°
2026-05-08 14:36 29.59743 -98.34214 7308 ft 275 kts 73°
2026-05-08 14:36 29.60429 -98.32146 8221 ft 286 kts 72°
2026-05-08 14:36 29.61155 -98.29966 9085 ft 297 kts 72°
2026-05-08 14:37 29.61901 -98.27723 9979 ft 305 kts 71°
2026-05-08 14:37 29.62669 -98.25406 10802 ft 317 kts 71°
2026-05-08 14:37 29.63117 -98.22895 11577 ft 326 kts 86°
2026-05-08 14:37 29.63350 -98.20252 12353 ft 337 kts 84°
2026-05-08 14:38 29.63604 -98.17536 13148 ft 346 kts 84°
2026-05-08 14:38 29.63863 -98.14761 14012 ft 353 kts 84°
2026-05-08 14:38 29.64126 -98.11915 14816 ft 361 kts 84°
2026-05-08 14:38 29.64392 -98.09052 15640 ft 368 kts 84°
2026-05-08 14:39 29.64667 -98.06068 16444 ft 375 kts 85°
2026-05-08 14:39 29.64946 -98.03055 17172 ft 383 kts 85°
2026-05-08 14:39 29.65063 -97.99975 17905 ft 388 kts 91°
2026-05-08 14:39 29.65095 -97.96843 18599 ft 395 kts 91°
2026-05-08 14:40 29.65143 -97.93671 19351 ft 399 kts 91°
2026-05-08 14:40 29.65200 -97.90471 20035 ft 403 kts 91°
2026-05-08 14:40 29.65263 -97.87223 20644 ft 409 kts 91°
2026-05-08 14:40 29.65324 -97.84002 20877 ft 407 kts 91°
2026-05-08 14:41 29.65362 -97.80742 20984 ft 407 kts 92°
2026-05-08 14:41 29.65397 -97.77510 20974 ft 405 kts 92°
2026-05-08 14:41 29.65432 -97.74267 20992 ft 405 kts 92°
2026-05-08 14:41 29.65468 -97.71023 20995 ft 405 kts 91°
2026-05-08 14:42 29.65502 -97.67791 20990 ft 405 kts 91°
2026-05-08 14:42 29.65525 -97.65648 20990 ft 404 kts 92°
2026-05-08 14:42 29.65558 -97.62419 20989 ft 404 kts 91°
2026-05-08 14:42 29.65591 -97.59176 20999 ft 405 kts 92°
2026-05-08 14:43 29.65622 -97.55946 21000 ft 404 kts 92°
2026-05-08 14:43 29.65654 -97.52717 20999 ft 404 kts 91°
2026-05-08 14:43 29.65684 -97.49485 21000 ft 404 kts 91°
2026-05-08 14:43 29.65713 -97.46262 20999 ft 403 kts 92°
2026-05-08 14:44 29.65741 -97.43032 20999 ft 403 kts 91°
2026-05-08 14:44 29.65769 -97.39804 20997 ft 403 kts 91°
2026-05-08 14:44 29.65796 -97.36575 21001 ft 403 kts 91°
2026-05-08 14:44 29.65823 -97.33353 20999 ft 403 kts 91°
2026-05-08 14:45 29.65848 -97.30132 20999 ft 403 kts 91°
2026-05-08 14:45 29.65873 -97.26919 20998 ft 402 kts 91°
2026-05-08 14:45 29.65895 -97.23743 20999 ft 402 kts 91°
2026-05-08 14:45 29.65917 -97.20525 20997 ft 402 kts 92°
2026-05-08 14:46 29.65937 -97.17322 21004 ft 401 kts 91°
2026-05-08 14:46 29.65958 -97.14112 20998 ft 401 kts 91°
2026-05-08 14:46 29.65977 -97.10922 21002 ft 400 kts 91°
2026-05-08 14:46 29.65996 -97.07719 20995 ft 400 kts 91°
2026-05-08 14:47 29.66014 -97.04523 20998 ft 400 kts 91°
2026-05-08 14:47 29.66018 -97.01324 20997 ft 399 kts 95°
2026-05-08 14:47 29.65654 -96.98171 21010 ft 396 kts 102°
2026-05-08 14:47 29.65211 -96.95045 21000 ft 397 kts 102°
2026-05-08 14:48 29.64776 -96.91911 21003 ft 397 kts 102°
2026-05-08 14:48 29.64343 -96.88784 21002 ft 397 kts 102°
2026-05-08 14:48 29.63909 -96.85648 20998 ft 396 kts 102°
2026-05-08 14:48 29.63475 -96.82516 21000 ft 396 kts 102°
2026-05-08 14:49 29.63044 -96.79420 21000 ft 396 kts 102°
2026-05-08 14:49 29.62612 -96.76310 20999 ft 396 kts 102°
2026-05-08 14:49 29.62177 -96.73190 20995 ft 396 kts 102°
2026-05-08 14:49 29.61740 -96.70063 21001 ft 396 kts 102°
2026-05-08 14:50 29.61301 -96.66931 21000 ft 396 kts 102°
2026-05-08 14:50 29.60865 -96.63814 21004 ft 396 kts 102°
2026-05-08 14:50 29.60427 -96.60693 20973 ft 393 kts 102°
2026-05-08 14:50 29.59995 -96.57617 20738 ft 387 kts 102°
2026-05-08 14:51 29.59566 -96.54576 20342 ft 385 kts 102°
2026-05-08 14:51 29.59138 -96.51539 19968 ft 383 kts 102°
2026-05-08 14:51 29.58712 -96.48524 19594 ft 381 kts 102°
2026-05-08 14:51 29.58289 -96.45537 19225 ft 378 kts 102°
2026-05-08 14:52 29.57865 -96.42552 18856 ft 376 kts 102°
2026-05-08 14:52 29.57027 -96.36656 18124 ft 372 kts 102°
2026-05-08 14:52 29.56616 -96.33772 17758 ft 369 kts 102°
2026-05-08 14:53 29.56201 -96.30861 17315 ft 370 kts 102°
2026-05-08 14:53 29.55781 -96.27926 16755 ft 373 kts 101°
2026-05-08 14:53 29.55359 -96.24973 16202 ft 376 kts 101°
2026-05-08 14:53 29.55212 -96.21943 15356 ft 389 kts 83°
2026-05-08 14:54 29.56019 -96.18981 14735 ft 391 kts 60°
2026-05-08 14:54 29.57678 -96.16530 14140 ft 388 kts 40°
2026-05-08 14:54 29.59683 -96.14434 13455 ft 391 kts 40°
2026-05-08 14:54 29.61686 -96.12285 12683 ft 396 kts 41°
2026-05-08 14:55 29.63705 -96.10105 11920 ft 401 kts 41°
2026-05-08 14:55 29.65743 -96.07900 11177 ft 403 kts 41°
2026-05-08 14:55 29.67785 -96.05690 10441 ft 404 kts 42°
2026-05-08 14:55 29.69837 -96.03466 9688 ft 405 kts 43°
2026-05-08 14:56 29.71884 -96.01272 9020 ft 394 kts 39°
2026-05-08 14:56 29.74073 -95.99568 8924 ft 363 kts 33°
2026-05-08 14:56 29.76093 -95.98028 8929 ft 335 kts 34°
2026-05-08 14:56 29.77954 -95.96582 8874 ft 314 kts 34°
2026-05-08 14:57 29.79734 -95.95186 8438 ft 306 kts 35°
2026-05-08 14:57 29.81465 -95.93821 8082 ft 297 kts 35°
2026-05-08 14:57 29.83136 -95.92499 7575 ft 294 kts 35°
2026-05-08 14:57 29.84813 -95.91172 7153 ft 292 kts 35°
2026-05-08 14:58 29.86471 -95.89857 7017 ft 285 kts 35°
2026-05-08 14:58 29.88074 -95.88603 7034 ft 270 kts 35°
2026-05-08 14:58 29.89585 -95.87422 7134 ft 261 kts 35°
2026-05-08 14:58 29.91083 -95.86251 7092 ft 260 kts 35°
2026-05-08 14:59 29.92576 -95.85080 7028 ft 258 kts 35°
2026-05-08 14:59 29.95550 -95.82753 7015 ft 258 kts 35°
2026-05-08 14:59 29.97025 -95.81560 7003 ft 258 kts 42°
2026-05-08 15:00 29.98054 -95.79937 6888 ft 249 kts 70°
2026-05-08 15:00 29.98682 -95.78078 6560 ft 249 kts 72°
2026-05-08 15:00 29.99164 -95.76177 6260 ft 244 kts 89°
2026-05-08 15:00 29.99220 -95.74245 5969 ft 241 kts 94°
2026-05-08 15:01 29.99240 -95.72316 5697 ft 239 kts 94°
2026-05-08 15:01 29.99256 -95.70421 5522 ft 232 kts 94°
2026-05-08 15:01 29.99283 -95.68591 5393 ft 225 kts 94°
2026-05-08 15:01 29.99301 -95.66787 5115 ft 224 kts 94°
2026-05-08 15:02 29.99314 -95.65010 4940 ft 219 kts 94°
2026-05-08 15:02 29.99322 -95.63282 4682 ft 218 kts 94°
2026-05-08 15:02 29.99328 -95.61542 4458 ft 213 kts 94°
2026-05-08 15:02 29.99330 -95.59831 4178 ft 213 kts 93°
2026-05-08 15:03 29.99334 -95.58121 3896 ft 212 kts 93°
2026-05-08 15:03 29.99336 -95.56434 3615 ft 209 kts 93°
2026-05-08 15:03 29.99338 -95.54766 3338 ft 206 kts 92°
2026-05-08 15:03 29.99340 -95.53137 3085 ft 199 kts 92°
2026-05-08 15:04 29.99341 -95.51583 2815 ft 188 kts 92°
2026-05-08 15:04 29.99342 -95.50162 2582 ft 166 kts 91°
2026-05-08 15:04 29.99342 -95.48925 2393 ft 145 kts 91°
2026-05-08 15:04 29.99342 -95.47779 2197 ft 141 kts 91°
2026-05-08 15:05 29.99342 -95.46664 2005 ft 140 kts 90°
2026-05-08 15:05 29.99342 -95.45543 1819 ft 138 kts 89°
2026-05-08 15:05 29.99342 -95.44437 1634 ft 137 kts 88°
2026-05-08 15:05 29.99343 -95.43339 1457 ft 137 kts 87°
2026-05-08 15:06 29.99343 -95.42240 1263 ft 136 kts 86°
2026-05-08 15:06 29.99327 -95.41149 1101 ft 136 kts 86°
2026-05-08 15:06 29.99320 -95.40061 948 ft 136 kts 86°
2026-05-08 15:06 29.99336 -95.38972 725 ft 135 kts 85°
2026-05-08 15:07 29.99338 -95.37884 560 ft 136 kts 86°
2026-05-08 15:07 29.99334 -95.36799 376 ft 134 kts 85°
2026-05-08 15:07 29.99343 -95.35724 202 ft 134 kts 87°
2026-05-08 15:07 29.99343 -95.34675 110 ft 118 kts 89°
2026-05-08 15:08 29.99343 -95.33966 108 ft 63 kts 90°
2026-05-08 15:08 29.99344 -95.33633 111 ft 57 kts 89°
2026-05-08 15:08 29.99291 -95.33254 110 ft 19 kts 117°
2026-05-08 15:08 29.99235 -95.33142 109 ft 9 kts 137°
2026-05-08 15:09 29.99183 -95.33171 109 ft 11 kts 250°
2026-05-08 15:09 29.99179 -95.33270 110 ft 14 kts 270°
2026-05-08 15:09 29.99178 -95.33395 110 ft 17 kts 270°
2026-05-08 15:09 29.99178 -95.33547 109 ft 21 kts 270°
2026-05-08 15:10 29.99178 -95.33722 109 ft 21 kts 269°
2026-05-08 15:10 29.99177 -95.33856 110 ft 13 kts 270°
2026-05-08 15:10 29.99174 -95.33954 108 ft 9 kts 247°
2026-05-08 15:10 29.99113 -95.33981 110 ft 10 kts 181°
2026-05-08 15:11 29.99049 -95.33982 110 ft 9 kts 180°
2026-05-08 15:11 29.98985 -95.33981 110 ft 10 kts 179°
2026-05-08 15:11 29.98914 -95.33980 110 ft 7 kts 171°
2026-05-08 15:11 29.98870 -95.33971 110 ft 5 kts 170°
2026-05-08 15:12 29.98840 -95.33972 108 ft 4 kts 186°
2026-05-08 15:12 29.98819 -95.33974 110 ft 2 kts 186°
2026-05-08 15:12 29.98808 -95.33975 110 ft 1 kts 185°